Helicity
101 16 -8 -14 -18 -11 -6 35 0 -10 -15 4 -13 -4 61 29 70 24 29 72 83 61 70 47 28 9 0 -18 -21 -24 -25 -21 -25 -11 7 9 10 24 19 20 29 47 43 11 20 29 27 29 23
28 12 -15 -23 -7 25 -6 8 -7 -9 3 -36 -10 -17 10 55 20 34 21 77 82 65 50 62 47 19 4 1 -6 -8 -6 -19 -14 -9 -12 -6 0 0 0 9 21 36 33 47 15 13 25 26 29
-10 -20 -11 -25 -12 18 31 -10 3 5 -25 -52 -30 -6 25 33 17 37 49 75 78 65 63 98 54 34 26 14 -1 5 4 -14 -33 -28 -25 -15 -4 1 -1 -2 7 26 36 28 38 24 26 25 23
-10 -24 -34 -16 11 3 11 19 18 8 -13 -42 -33 -23 15 16 39 25 80 58 67 73 70 87 57 66 53 26 7 6 6 -22 -36 -25 -21 -3 6 12 11 4 11 34 43 50 32 25 20 35 22
-14 -16 -13 -15 -13 0 -4 20 9 -4 -14 -25 -27 -8 7 64 57 88 54 47 45 72 81 79 57 75 59 42 18 11 1 -16 -25 -25 -19 -8 9 13 25 17 5 23 38 50 53 42 35 29 35
-2 8 -6 -4 8 12 24 1 -11 -16 -8 21 -3 -21 9 130 64 66 49 36 49 80 78 102 69 70 64 44 25 21 3 -8 -9 -14 -11 -1 17 23 31 33 26 23 37 46 53 59 52 58 84
16 13 -1 0 2 3 11 57 -10 -1 2 4 49 7 37 52 4 37 31 28 49 61 56 83 53 65 70 51 42 33 11 7 7 6 1 7 27 32 38 41 46 46 46 51 54 55 62 71 90
27 30 2 -5 5 -2 28 42 20 11 4 75 111 5 9 91 47 36 45 22 46 52 54 45 94 76 52 61 61 51 35 28 25 20 28 27 46 34 17 17 44 53 54 58 56 54 57 66 83
46 41 14 6 11 12 15 7 -9 43 16 27 47 5 75 121 101 39 43 35 49 39 43 35 82 56 48 58 72 67 55 48 48 38 31 11 23 14 43 89 56 45 47 53 57 51 41 42 64
48 31 16 45 43 26 22 20 11 5 -4 -13 8 -1 90 82 98 55 49 44 43 40 28 30 59 69 55 68 85 56 62 45 24 32 33 18 48 62 103 76 65 51 35 37 43 38 26 16 45
53 32 31 39 43 32 18 2 -6 -10 6 -12 2 9 66 99 72 53 60 55 48 42 49 28 52 60 74 90 94 63 76 67 73 61 57 73 89 69 45 50 36 39 -8 6 16 31 55 56 53
19 -7 16 31 41 23 11 3 -4 7 -7 -12 -7 38 73 119 95 77 54 67 56 67 66 49 36 82 78 110 96 99 104 99 99 92 82 104 83 66 64 48 60 38 37 28 27 37 37 46 58
-8 7 34 22 20 3 2 4 -12 7 -15 -30 5 19 40 32 70 60 68 62 76 85 104 84 50 73 87 94 107 121 125 123 126 117 113 102 104 90 91 78 54 52 43 39 39 28 32 42 56
104 34 -2 -2 5 15 11 6 20 16 23 12 4 -2 6 50 46 54 63 67 78 96 113 114 109 59 107 97 119 111 150 153 161 162 144 117 121 115 98 85 75 60 48 49 40 46 45 40 42
18 4 3 -2 26 72 90 10 26 -24 28 10 12 21 31 44 59 78 77 102 88 94 106 129 143 85 95 117 139 150 188 187 207 187 156 145 148 129 119 98 84 69 55 57 57 59 53 55 47
20 23 4 82 48 68 40 -16 31 119 129 47 52 51 52 56 49 66 83 69 87 94 98 130 219 142 106 154 203 187 170 200 223 198 193 172 170 152 141 130 109 99 92 73 66 63 64 65 56
37 13 44 53 114 87 46 10 46 94 39 40 31 29 34 32 45 54 45 69 59 61 74 96 198 171 136 140 228 201 171 208 208 209 226 207 194 173 163 149 139 119 99 80 70 75 69 74 69
80 57 30 14 33 49 18 10 10 9 19 7 14 12 24 34 43 23 30 49 69 67 73 61 141 175 174 179 252 279 245 241 227 235 258 227 243 201 184 182 163 135 117 89 79 68 75 89 86
59 39 13 11 21 40 23 16 4 8 20 16 10 13 20 36 41 36 59 41 45 89 64 67 74 147 228 245 302 393 411 366 316 298 254 260 257 230 224 228 188 167 133 100 83 81 80 76 85
49 32 16 20 41 41 26 6 -8 -45 -47 17 36 50 60 115 179 307 343 387 368 128 95 67 71 93 158 317 285 359 364 369 332 335 298 288 278 244 229 233 219 181 161 128 104 102 89 89 99
28 24 13 35 20 7 3 2 89 55 53 71 312 438 454 337 318 398 321 280 259 309 269 148 80 59 97 204 232 261 258 291 339 349 382 364 308 271 225 229 219 185 164 158 130 115 95 95 100
37 125 89 49 43 55 130 76 64 112 86 471 468 400 333 324 282 245 308 291 265 240 199 144 159 63 68 129 243 265 320 379 448 490 499 450 335 288 252 223 211 189 185 158 139 122 106 113 112
75 113 75 54 64 75 61 125 82 148 247 393 451 340 289 229 241 206 203 211 158 94 115 87 99 126 51 49 230 339 311 293 325 374 409 383 358 312 271 231 209 214 207 159 153 130 103 114 124
73 56 50 0 48 77 -18 44 98 168 280 373 348 244 187 184 185 182 148 83 6 73 52 51 96 161 166 130 114 253 340 292 318 333 362 388 416 386 308 245 256 242 222 196 190 151 112 118 119
80 111 73 55 171 81 249 273 127 123 296 413 362 360 399 309 247 236 181 103 -11 -148 74 165 185 216 229 137 120 155 263 287 253 249 246 318 441 453 369 304 310 289 263 225 204 166 130 126 137
86 124 138 177 147 188 283 337 240 127 172 282 364 286 254 202 147 137 128 106 62 -13 -52 12 16 93 122 94 88 135 166 258 268 210 253 285 327 392 369 359 310 278 253 240 220 179 153 139 138
228 155 373 223 135 131 148 101 40 80 268 274 304 262 204 100 55 80 59 -36 -63 -116 -124 -150 -116 -63 8 66 21 49 139 157 199 167 200 291 222 268 315 323 328 273 249 224 202 170 144 142 127
126 278 235 221 285 240 267 308 337 467 495 284 143 81 79 82 75 70 64 37 84 64 41 9 4 6 -48 5 20 -6 45 113 143 150 144 284 247 208 259 317 304 282 266 226 189 167 137 135 137
159 168 275 259 310 299 189 265 333 369 267 240 92 39 25 104 77 36 33 41 31 40 38 44 27 75 14 -27 17 4 -12 70 99 128 159 237 211 199 237 288 303 284 271 213 177 150 144 140 114
162 164 402 395 218 334 338 399 111 237 98 23 37 29 63 107 61 37 29 23 21 41 19 3 -36 -6 39 28 16 21 -17 14 83 126 147 172 195 182 198 267 290 276 262 218 173 156 145 131 124
Wind_Speed
38 37 34 35 35 37 40 30 34 30 31 30 32 34 37 38 36 32 28 30 31 34 33 36 37 39 41 41 42 42 42 43 42 42 43 44 44 45 45 46 44 43 44 45 43 43 44 43 41
35 32 36 39 42 42 34 33 34 32 33 35 36 38 40 35 35 26 25 25 29 29 30 31 34 35 37 40 41 42 42 42 42 42 42 44 45 45 45 45 42 40 41 41 43 42 42 42 42
36 40 39 39 45 46 39 38 39 34 34 35 38 40 41 35 32 24 20 22 25 24 24 25 29 31 34 36 37 38 39 39 40 40 41 41 43 45 46 45 43 39 39 40 42 44 41 40 39
35 37 43 45 52 48 44 46 43 38 37 39 40 44 35 34 28 23 16 18 18 18 18 20 21 25 27 30 33 35 36 36 37 38 39 40 42 43 44 44 43 39 39 39 40 42 42 41 39
38 43 47 51 52 54 51 48 47 45 45 42 40 45 43 31 30 21 12 12 13 13 13 15 16 18 21 25 28 30 32 33 34 35 36 38 39 41 43 44 42 40 38 38 39 40 41 41 40
42 43 53 55 55 53 46 50 49 49 50 43 45 53 47 27 23 16 10 8 7 8 10 12 11 14 16 19 22 24 26 28 30 32 33 34 36 38 40 41 41 40 38 38 38 39 39 39 39
43 49 57 60 60 58 57 44 52 55 55 52 39 52 44 31 18 12 9 8 6 6 6 7 9 10 11 13 16 19 21 23 26 27 29 31 33 36 38 39 39 38 38 38 37 37 38 38 36
45 46 59 61 60 59 57 47 53 59 61 41 37 52 53 24 14 12 9 9 7 6 4 2 6 5 7 8 10 13 16 18 20 23 25 27 30 33 35 37 38 37 37 37 36 36 37 37 37
43 50 59 60 63 64 58 57 58 47 59 53 48 58 45 30 13 13 13 12 10 7 5 3 4 4 7 6 6 8 10 12 15 17 19 22 25 27 33 37 37 36 36 36 35 34 34 34 36
43 53 56 57 58 62 64 64 63 66 63 62 55 56 37 31 19 18 18 17 11 9 8 7 6 5 6 5 3 6 4 5 8 10 13 15 20 26 31 34 35 35 34 35 34 33 32 32 35
44 54 58 57 57 62 65 67 65 66 68 65 68 65 41 29 25 26 21 18 15 13 12 11 10 10 9 9 5 6 3 1 3 5 7 12 17 20 24 29 30 31 28 29 31 33 36 35 35
55 59 61 60 59 63 66 69 72 65 72 70 69 57 63 31 27 23 22 20 19 16 14 16 17 15 15 13 13 11 10 9 7 5 5 10 14 16 22 27 30 31 30 29 30 32 32 33 35
58 63 61 63 63 67 70 71 76 73 73 70 61 59 51 55 28 24 24 25 24 22 20 19 19 20 20 21 19 19 17 15 13 11 9 11 15 17 21 26 28 31 31 30 29 28 29 31 34
57 64 74 73 69 66 73 73 63 63 55 57 55 58 55 43 38 30 25 25 25 24 23 21 21 23 23 25 24 24 23 21 20 19 17 16 17 19 21 25 28 30 31 30 29 28 28 28 30
58 73 74 72 56 57 58 71 54 58 50 57 55 53 53 47 40 36 32 30 29 30 30 28 27 27 28 28 29 29 29 27 27 26 24 22 21 21 23 26 28 29 29 30 30 29 28 29 29
55 62 63 46 45 49 52 84 72 62 57 60 57 60 61 58 56 44 37 41 39 39 40 36 32 31 32 32 31 32 32 32 32 31 29 27 26 26 26 29 29 29 29 30 30 29 30 30 31
37 61 64 68 53 53 53 84 64 63 76 73 70 72 70 74 64 55 58 54 49 48 45 44 38 38 37 37 35 35 35 35 34 33 33 31 30 29 30 31 30 27 29 29 30 29 30 30 31
69 76 79 81 72 62 85 98 95 89 80 83 81 80 75 70 71 67 62 56 53 56 52 49 45 42 40 41 41 39 38 38 38 38 37 35 35 33 33 32 30 27 29 29 30 29 30 32 33
69 72 80 79 76 82 84 87 96 92 78 75 71 66 64 61 58 59 64 63 53 47 54 52 51 46 45 46 46 44 44 42 42 40 37 36 35 34 33 33 31 30 30 29 29 29 30 31 32
56 66 73 75 64 82 86 96 99 77 59 53 57 52 53 55 54 58 62 62 64 54 59 60 60 54 52 50 51 50 47 46 44 41 40 38 37 35 35 34 34 31 30 30 29 29 31 32 32
62 67 75 78 83 81 77 84 64 68 36 45 45 48 53 54 57 62 64 64 63 66 69 69 67 62 56 53 54 54 52 49 46 44 45 43 40 38 37 34 31 29 29 31 29 30 31 33 30
68 57 65 74 80 78 79 91 84 49 40 41 50 54 57 65 68 69 70 70 71 71 70 70 74 68 65 57 58 60 61 61 55 51 47 45 42 39 37 34 33 31 31 31 30 29 29 31 32
61 62 69 71 76 88 77 66 46 52 40 48 54 59 66 72 80 81 81 80 77 76 76 75 74 75 68 65 60 62 64 65 61 55 51 48 46 43 40 38 34 33 33 31 30 29 28 29 32
58 66 78 66 64 78 64 53 62 46 52 56 62 69 79 89 94 89 87 89 86 83 80 77 79 79 76 75 69 66 68 66 65 62 59 53 49 47 44 41 38 36 34 33 32 30 29 28 29
59 82 79 69 60 75 54 78 63 61 53 59 76 85 94 105 104 103 104 100 93 88 87 85 85 86 84 75 71 72 69 69 71 66 63 58 54 51 48 43 41 39 36 33 32 31 30 29 29
75 62 65 82 84 95 96 85 61 45 42 66 88 97 105 110 113 114 113 107 103 98 95 90 91 90 88 86 77 78 75 73 73 73 65 61 57 54 48 45 42 39 35 34 33 33 32 29 28
58 67 64 79 86 93 79 75 66 54 85 101 112 111 114 114 118 119 115 111 109 106 101 96 95 90 87 88 84 80 84 77 76 77 73 63 59 55 49 46 43 39 36 34 32 32 30 28 26
49 58 71 62 87 97 90 100 100 95 115 123 126 126 124 122 128 124 117 112 108 100 97 93 92 88 82 83 82 81 84 84 78 77 82 65 61 55 50 48 44 40 36 34 33 33 30 28 28
70 71 61 65 70 97 119 104 81 121 111 123 123 117 115 110 114 112 110 107 100 98 96 97 96 94 89 84 84 83 82 85 82 81 80 70 65 57 51 49 45 42 38 35 32 30 28 28 28
55 55 58 76 91 92 105 120 108 96 121 111 114 111 105 105 101 102 100 99 97 93 95 98 98 98 91 88 85 84 80 81 84 85 76 77 66 58 53 50 46 42 38 35 33 30 28 27 29
Wind_Direction
245 247 243 254 269 256 273 324 292 297 294 299 295 283 288 284 293 306 76 82 79 90 81 99 105 104 103 101 99 98 91 77 67 61 53 44 42 33 35 30 21 9 13 40 39 34 35 23 18
270 278 264 270 278 292 322 305 305 296 301 291 297 295 284 304 323 14 78 82 95 88 84 85 97 99 101 98 92 91 80 79 74 63 58 54 49 50 48 40 25 7 13 8 29 41 35 31 22
259 253 272 283 285 293 306 306 295 299 304 300 300 301 298 312 329 7 39 90 97 88 73 62 89 96 95 92 93 90 84 85 83 70 62 59 51 52 51 50 39 17 6 11 14 27 26 21 26
282 281 271 287 277 290 297 296 294 300 305 298 299 296 318 321 341 355 47 87 92 76 65 54 71 88 89 89 94 92 87 83 85 75 60 52 53 50 50 50 39 14 5 7 21 24 19 12 17
280 274 287 284 286 282 289 294 298 297 294 298 301 300 307 331 330 349 54 70 87 68 56 49 68 81 88 91 95 94 88 84 80 75 65 56 52 52 51 46 46 21 6 8 13 21 23 18 6
286 288 282 284 289 290 301 295 293 291 289 299 300 294 306 339 346 356 35 44 54 56 40 47 70 95 94 93 98 93 88 83 75 73 67 58 53 51 50 48 45 34 10 4 8 12 16 21 12
291 288 282 281 285 291 288 308 294 287 286 290 304 298 311 325 353 5 11 8 6 12 23 43 80 101 96 92 92 91 86 81 77 69 64 58 54 42 40 38 39 33 21 9 5 7 8 12 15
291 297 290 287 291 296 292 310 299 287 284 311 304 299 299 327 357 1 358 339 336 330 352 46 95 108 117 100 100 89 87 81 72 72 60 57 49 42 39 41 30 28 24 15 9 8 6 7 8
303 298 294 294 293 292 294 301 296 308 293 295 298 292 308 326 345 339 330 319 313 303 286 264 163 139 155 134 115 95 84 78 70 66 69 66 49 47 33 22 25 23 18 16 13 7 7 9 6
304 296 298 298 297 293 294 294 297 288 290 290 293 294 311 316 319 313 311 310 295 277 267 259 245 226 195 179 162 153 101 79 80 68 70 61 38 24 23 23 23 21 19 14 10 11 11 8 358
305 296 292 297 301 297 297 294 296 290 286 291 287 287 299 307 303 301 301 304 299 286 278 259 248 240 218 219 229 206 258 275 353 31 43 25 22 21 20 20 25 24 31 20 13 5 358 0 358
295 293 290 297 300 299 296 292 287 292 286 292 289 298 291 303 297 292 290 292 296 288 271 264 260 245 241 242 246 252 267 275 287 299 336 353 356 5 1 2 4 10 14 15 12 4 3 3 357
295 290 296 299 302 299 297 295 283 289 293 293 298 298 303 297 295 289 284 288 289 285 275 259 253 246 244 236 251 256 260 262 268 277 288 314 328 340 346 348 352 354 359 3 7 10 8 3 356
304 298 292 295 299 304 297 298 305 303 307 308 305 299 297 300 298 293 282 277 272 271 267 259 247 245 243 242 244 254 261 264 267 272 278 289 308 319 329 335 339 343 347 351 355 359 1 2 359
307 297 299 302 307 310 311 299 310 309 310 308 309 307 305 303 300 291 286 274 272 276 277 269 261 259 252 249 252 260 265 263 264 269 271 277 291 302 313 321 327 333 339 341 343 346 352 353 353
313 309 307 320 325 320 317 279 303 312 311 310 310 308 307 305 303 301 294 289 283 281 279 274 267 259 252 254 257 260 262 263 264 265 268 269 278 289 299 308 315 322 329 333 333 336 338 343 345
319 309 307 306 321 317 315 294 313 312 304 305 307 306 306 302 302 304 300 296 291 286 281 276 266 263 261 258 260 260 262 262 263 264 266 265 271 278 288 297 304 312 318 323 326 328 329 334 338
305 297 294 295 306 310 299 285 285 298 304 301 303 302 305 305 304 304 302 299 294 290 285 281 273 263 261 265 262 264 265 264 265 265 266 265 268 271 279 289 295 301 307 313 317 320 325 327 330
306 305 301 304 310 304 304 303 292 298 308 309 309 312 313 315 318 318 312 307 301 296 289 283 278 268 263 265 262 260 262 263 263 263 260 260 262 263 269 280 285 290 297 303 309 314 316 322 328
321 315 312 313 321 311 310 301 302 309 320 328 323 325 327 330 333 335 331 329 325 313 303 294 287 277 268 265 265 264 265 265 263 263 261 259 259 261 265 272 277 281 290 294 300 305 310 315 323
320 316 313 312 312 315 314 313 327 329 327 340 349 352 347 343 339 335 335 333 329 323 316 306 297 287 276 269 268 268 268 266 262 260 261 257 257 259 261 265 270 274 282 288 293 298 301 308 317
315 327 321 318 317 315 321 309 320 337 345 346 344 346 342 336 335 332 329 328 326 324 323 318 308 297 287 275 267 262 263 262 259 261 260 258 253 255 256 259 264 270 276 282 287 292 296 302 308
322 326 320 319 315 314 316 312 334 336 335 334 338 339 339 337 332 327 324 324 324 325 323 321 318 310 299 285 267 263 261 266 267 264 259 257 253 253 253 255 258 265 271 276 282 286 288 297 305
328 325 319 315 316 314 320 311 321 327 326 328 329 329 327 327 327 326 325 324 323 322 320 321 318 315 309 295 282 265 261 261 264 261 259 255 253 251 250 251 255 260 265 271 276 280 284 292 300
329 324 321 320 317 316 327 315 311 325 331 330 327 325 324 322 322 321 320 321 321 320 319 316 315 312 311 303 286 275 262 262 262 261 258 254 251 249 247 245 251 256 260 267 272 275 280 287 296
322 324 321 316 314 310 311 307 312 337 347 332 328 325 323 322 321 320 318 318 317 316 314 312 310 309 309 305 295 280 270 262 261 262 259 253 249 247 245 242 247 252 256 262 267 273 278 286 292
333 324 326 315 311 308 311 312 313 321 320 322 322 323 323 323 321 320 320 316 314 313 313 311 309 307 306 305 299 285 275 265 261 261 260 252 251 250 242 239 243 247 252 256 262 268 274 284 289
327 333 324 320 316 312 312 312 312 319 318 318 319 320 319 320 318 318 318 318 316 314 312 312 309 307 306 305 299 289 279 268 263 260 258 249 250 246 239 238 240 243 248 253 257 266 274 280 288
321 318 320 317 313 312 311 312 325 319 322 320 319 321 321 323 323 321 320 321 320 316 313 307 303 300 296 297 296 289 281 271 265 261 255 251 249 244 237 233 234 239 244 249 253 262 271 277 285
325 323 326 319 315 311 310 303 316 322 320 321 322 323 324 325 325 324 324 324 322 320 314 310 300 293 294 293 293 290 283 274 266 261 255 251 247 243 237 232 232 235 241 245 250 257 268 274 282